Time,TemperatureF,DewpointF,PressureIn,WindDirection,WindDirectionDegrees,WindSpeedMPH,WindSpeedGustMPH,Humidity,HourlyPrecipIn,Conditions,Clouds,dailyrainin,SoftwareType,DateUTC
2013-03-10 00:02:00,35.0,26.0,30.34,NE,42,0.0,-999.0,69,-99.99,,,-99.99,,2013-03-10 05:02:00,
2013-03-10 00:11:00,35.0,26.0,30.34,NE,42,0.0,-999.0,69,-99.99,,,-99.99,,2013-03-10 05:11:00,
2013-03-10 00:22:00,34.0,25.0,30.34,NE,41,0.0,-999.0,70,-99.99,,,-99.99,,2013-03-10 05:22:00,
2013-03-10 00:32:00,34.0,25.0,30.34,NE,42,0.0,-999.0,70,-99.99,,,-99.99,,2013-03-10 05:32:00,
2013-03-10 00:42:00,33.0,25.0,30.33,NE,42,0.0,-999.0,73,-99.99,,,-99.99,,2013-03-10 05:42:00,
2013-03-10 00:52:00,33.0,25.0,30.33,NE,42,0.0,-999.0,73,-99.99,,,-99.99,,2013-03-10 05:52:00,
2013-03-10 01:02:00,32.0,25.0,30.34,NE,42,0.0,-999.0,74,-99.99,,,-99.99,,2013-03-10 06:02:00,
2013-03-10 01:11:00,32.0,25.0,30.34,NE,42,0.0,-999.0,74,-99.99,,,-99.99,,2013-03-10 06:11:00,
2013-03-10 01:22:00,31.0,25.0,30.35,NE,42,0.0,-999.0,77,-99.99,,,-99.99,,2013-03-10 06:22:00,
2013-03-10 01:32:00,31.0,25.0,30.35,NE,41,0.0,-999.0,79,-99.99,,,-99.99,,2013-03-10 06:32:00,
2013-03-10 01:42:00,31.0,25.0,30.35,NE,41,0.0,-999.0,78,-99.99,,,-99.99,,2013-03-10 06:42:00,
2013-03-10 01:52:00,31.0,25.0,30.35,NE,41,0.0,-999.0,78,-99.99,,,-99.99,,2013-03-10 06:52:00,
2013-03-10 03:02:00,31.0,24.0,30.35,NE,41,0.0,-999.0,76,-99.99,,,-99.99,,2013-03-10 07:02:00,
2013-03-10 03:11:00,31.0,24.0,30.35,NE,42,0.0,-999.0,75,-99.99,,,-99.99,,2013-03-10 07:11:00,
2013-03-10 03:21:00,31.0,24.0,30.35,NE,42,0.0,-999.0,75,-99.99,,,-99.99,,2013-03-10 07:21:00,
2013-03-10 03:32:00,30.0,24.0,30.35,NE,42,0.0,-999.0,77,-99.99,,,-99.99,,2013-03-10 07:32:00,
2013-03-10 03:42:00,30.0,24.0,30.34,NE,41,0.0,-999.0,79,-99.99,,,-99.99,,2013-03-10 07:42:00,
2013-03-10 03:52:00,30.0,24.0,30.34,NE,41,0.0,-999.0,79,-99.99,,,-99.99,,2013-03-10 07:52:00,
2013-03-10 04:02:00,30.0,24.0,30.34,NE,41,0.0,-999.0,78,-99.99,,,-99.99,,2013-03-10 08:02:00,
2013-03-10 04:11:00,30.0,24.0,30.34,NE,41,0.0,-999.0,78,-99.99,,,-99.99,,2013-03-10 08:11:00,
2013-03-10 04:21:00,29.0,23.0,30.34,NE,41,0.0,-999.0,79,-99.99,,,-99.99,,2013-03-10 08:21:00,
2013-03-10 04:32:00,29.0,23.0,30.34,NE,42,0.0,-999.0,79,-99.99,,,-99.99,,2013-03-10 08:32:00,
2013-03-10 04:42:00,29.0,23.0,30.35,NE,42,0.0,-999.0,78,-99.99,,,-99.99,,2013-03-10 08:42:00,
2013-03-10 04:51:00,29.0,23.0,30.35,NE,42,0.0,-999.0,78,-99.99,,,-99.99,,2013-03-10 08:51:00,
2013-03-10 05:02:00,29.0,23.0,30.34,NE,42,0.0,-999.0,79,-99.99,,,-99.99,,2013-03-10 09:02:00,
2013-03-10 05:11:00,29.0,23.0,30.34,NE,42,0.0,-999.0,79,-99.99,,,-99.99,,2013-03-10 09:11:00,
2013-03-10 05:21:00,28.0,22.0,30.34,NE,41,0.0,-999.0,79,-99.99,,,-99.99,,2013-03-10 09:21:00,
2013-03-10 05:31:00,28.0,23.0,30.35,NE,42,0.0,-999.0,81,-99.99,,,-99.99,,2013-03-10 09:31:00,
2013-03-10 05:41:00,28.0,23.0,30.35,NE,42,0.0,-999.0,81,-99.99,,,-99.99,,2013-03-10 09:41:00,
2013-03-10 05:51:00,27.0,22.0,30.35,NE,42,0.0,-999.0,82,-99.99,,,-99.99,,2013-03-10 09:51:00,
2013-03-10 06:02:00,27.0,22.0,30.36,NE,42,0.0,-999.0,82,-99.99,,,-99.99,,2013-03-10 10:02:00,
2013-03-10 06:11:00,27.0,22.0,30.36,NE,42,0.0,-999.0,82,-99.99,,,-99.99,,2013-03-10 10:11:00,
2013-03-10 06:21:00,27.0,22.0,30.36,NE,42,0.0,-999.0,82,-99.99,,,-99.99,,2013-03-10 10:21:00,
2013-03-10 06:32:00,27.0,23.0,30.36,NE,41,0.0,-999.0,83,-99.99,,,-99.99,,2013-03-10 10:32:00,
2013-03-10 06:42:00,27.0,22.0,30.36,NE,41,0.0,-999.0,82,-99.99,,,-99.99,,2013-03-10 10:42:00,
2013-03-10 06:52:00,27.0,22.0,30.36,NE,41,0.0,-999.0,82,-99.99,,,-99.99,,2013-03-10 10:52:00,
2013-03-10 07:01:00,27.0,22.0,30.36,NE,41,0.0,-999.0,82,-99.99,,,-99.99,,2013-03-10 11:01:00,
2013-03-10 07:12:00,26.0,21.0,30.37,NE,42,0.0,-999.0,82,-99.99,,,-99.99,,2013-03-10 11:12:00,
2013-03-10 07:21:00,26.0,21.0,30.37,NE,42,0.0,-999.0,82,-99.99,,,-99.99,,2013-03-10 11:21:00,
2013-03-10 07:32:00,25.0,21.0,30.37,NE,42,0.0,-999.0,83,-99.99,,,-99.99,,2013-03-10 11:32:00,
2013-03-10 07:42:00,25.0,21.0,30.37,NE,42,0.0,-999.0,83,-99.99,,,-99.99,,2013-03-10 11:42:00,
2013-03-10 07:52:00,25.0,21.0,30.37,NE,42,0.0,-999.0,84,-99.99,,,-99.99,,2013-03-10 11:52:00,
2013-03-10 08:02:00,26.0,22.0,30.38,NE,41,0.0,-999.0,85,-99.99,,,-99.99,,2013-03-10 12:02:00,
2013-03-10 08:11:00,26.0,22.0,30.38,NE,41,0.0,-999.0,85,-99.99,,,-99.99,,2013-03-10 12:11:00,
2013-03-10 08:21:00,27.0,23.0,30.37,NE,41,0.0,-999.0,83,-99.99,,,-99.99,,2013-03-10 12:21:00,
2013-03-10 08:31:00,27.0,23.0,30.38,NE,42,0.0,-999.0,83,-99.99,,,-99.99,,2013-03-10 12:31:00,
2013-03-10 08:42:00,27.0,23.0,30.38,NE,42,0.0,-999.0,83,-99.99,,,-99.99,,2013-03-10 12:42:00,
2013-03-10 08:51:00,26.0,22.0,30.38,NE,42,0.0,-999.0,83,-99.99,,,-99.99,,2013-03-10 12:51:00,
2013-03-10 09:01:00,27.0,23.0,30.39,NE,42,0.0,-999.0,83,-99.99,,,-99.99,,2013-03-10 13:01:00,
2013-03-10 09:11:00,27.0,23.0,30.39,NE,42,0.0,-999.0,83,-99.99,,,-99.99,,2013-03-10 13:11:00,
2013-03-10 09:21:00,28.0,23.0,30.40,NE,41,0.0,-999.0,82,-99.99,,,-99.99,,2013-03-10 13:21:00,
2013-03-10 09:32:00,29.0,24.0,30.40,NE,41,0.0,-999.0,80,-99.99,,,-99.99,,2013-03-10 13:32:00,
2013-03-10 09:42:00,29.0,24.0,30.40,NE,41,0.0,-999.0,80,-99.99,,,-99.99,,2013-03-10 13:42:00,
2013-03-10 09:52:00,30.0,24.0,30.40,NE,45,0.0,-999.0,79,-99.99,,,-99.99,,2013-03-10 13:52:00,
2013-03-10 10:02:00,32.0,26.0,30.40,NE,45,0.0,-999.0,77,-99.99,,,-99.99,,2013-03-10 14:02:00,
2013-03-10 10:11:00,32.0,26.0,30.40,NE,45,0.0,-999.0,77,-99.99,,,-99.99,,2013-03-10 14:11:00,
2013-03-10 10:21:00,33.0,26.0,30.40,NE,46,0.0,-999.0,76,-99.99,,,-99.99,,2013-03-10 14:21:00,
2013-03-10 10:32:00,35.0,28.0,30.40,East,86,0.0,-999.0,76,-99.99,,,-99.99,,2013-03-10 14:32:00,
2013-03-10 10:42:00,35.0,28.0,30.40,East,86,0.0,-999.0,76,-99.99,,,-99.99,,2013-03-10 14:42:00,
2013-03-10 10:51:00,36.0,29.0,30.40,East,93,0.0,-999.0,74,-99.99,,,-99.99,,2013-03-10 14:51:00,
2013-03-10 11:01:00,37.0,29.0,30.39,East,96,0.0,-999.0,73,-99.99,,,-99.99,,2013-03-10 15:01:00,
2013-03-10 11:11:00,37.0,29.0,30.39,East,96,0.0,-999.0,73,-99.99,,,-99.99,,2013-03-10 15:11:00,
2013-03-10 11:21:00,38.0,29.0,30.39,East,91,0.0,-999.0,71,-99.99,,,-99.99,,2013-03-10 15:21:00,
2013-03-10 11:32:00,40.0,30.0,30.39,SSE,158,0.0,-999.0,67,-99.99,,,-99.99,,2013-03-10 15:32:00,
2013-03-10 11:42:00,40.0,30.0,30.39,SSE,158,0.0,-999.0,67,-99.99,,,-99.99,,2013-03-10 15:42:00,
2013-03-10 11:52:00,40.0,30.0,30.38,ENE,62,0.0,-999.0,66,-99.99,,,-99.99,,2013-03-10 15:52:00,
2013-03-10 12:02:00,41.0,30.0,30.37,East,79,0.0,-999.0,64,-99.99,,,-99.99,,2013-03-10 16:02:00,
2013-03-10 12:12:00,41.0,30.0,30.37,East,79,0.0,-999.0,64,-99.99,,,-99.99,,2013-03-10 16:12:00,
2013-03-10 12:21:00,43.0,30.0,30.37,ESE,104,1.0,-999.0,61,-99.99,,,-99.99,,2013-03-10 16:21:00,
2013-03-10 12:32:00,43.0,30.0,30.37,SE,128,0.0,-999.0,59,-99.99,,,-99.99,,2013-03-10 16:32:00,
2013-03-10 12:42:00,43.0,30.0,30.37,SE,128,0.0,-999.0,59,-99.99,,,-99.99,,2013-03-10 16:42:00,
2013-03-10 12:51:00,45.0,31.0,30.37,South,187,0.0,-999.0,57,-99.99,,,-99.99,,2013-03-10 16:51:00,
2013-03-10 13:01:00,45.0,30.0,30.37,South,190,0.0,-999.0,55,-99.99,,,-99.99,,2013-03-10 17:01:00,
2013-03-10 13:11:00,45.0,30.0,30.37,South,190,0.0,-999.0,55,-99.99,,,-99.99,,2013-03-10 17:11:00,
2013-03-10 13:21:00,46.0,30.0,30.36,WNW,283,0.0,-999.0,54,-99.99,,,-99.99,,2013-03-10 17:21:00,
2013-03-10 13:32:00,47.0,30.0,30.36,West,279,1.0,-999.0,51,-99.99,,,-99.99,,2013-03-10 17:32:00,
2013-03-10 13:41:00,47.0,30.0,30.36,West,279,1.0,-999.0,51,-99.99,,,-99.99,,2013-03-10 17:41:00,
2013-03-10 13:51:00,48.0,29.0,30.35,SW,214,1.0,-999.0,48,-99.99,,,-99.99,,2013-03-10 17:51:00,
2013-03-10 14:01:00,48.0,29.0,30.35,SSW,192,0.0,-999.0,47,-99.99,,,-99.99,,2013-03-10 18:01:00,
2013-03-10 14:11:00,48.0,29.0,30.35,SSW,192,0.0,-999.0,47,-99.99,,,-99.99,,2013-03-10 18:11:00,
2013-03-10 14:22:00,49.0,29.0,30.34,SSE,158,0.0,-999.0,46,-99.99,,,-99.99,,2013-03-10 18:22:00,
2013-03-10 14:32:00,50.0,29.0,30.33,South,188,0.0,-999.0,44,-99.99,,,-99.99,,2013-03-10 18:32:00,
2013-03-10 14:42:00,50.0,29.0,30.33,South,188,0.0,-999.0,44,-99.99,,,-99.99,,2013-03-10 18:42:00,
2013-03-10 14:52:00,50.0,29.0,30.33,SSW,193,1.0,-999.0,44,-99.99,,,-99.99,,2013-03-10 18:52:00,
2013-03-10 15:01:00,50.0,29.0,30.32,South,171,0.0,-999.0,44,-99.99,,,-99.99,,2013-03-10 19:01:00,
2013-03-10 15:11:00,50.0,29.0,30.32,South,171,0.0,-999.0,44,-99.99,,,-99.99,,2013-03-10 19:11:00,
2013-03-10 15:21:00,51.0,30.0,30.33,SSW,196,0.0,-999.0,44,-99.99,,,-99.99,,2013-03-10 19:21:00,
2013-03-10 15:32:00,51.0,30.0,30.32,South,186,0.0,-999.0,44,-99.99,,,-99.99,,2013-03-10 19:32:00,
2013-03-10 15:42:00,51.0,30.0,30.32,South,186,0.0,-999.0,44,-99.99,,,-99.99,,2013-03-10 19:42:00,
2013-03-10 15:52:00,51.0,29.0,30.32,SSW,201,0.0,-999.0,42,-99.99,,,-99.99,,2013-03-10 19:52:00,
2013-03-10 16:02:00,51.0,29.0,30.32,SSW,210,1.0,-999.0,43,-99.99,,,-99.99,,2013-03-10 20:02:00,
2013-03-10 16:12:00,51.0,29.0,30.32,SSW,210,1.0,-999.0,43,-99.99,,,-99.99,,2013-03-10 20:12:00,
2013-03-10 16:22:00,50.0,32.0,30.32,SW,232,2.0,-999.0,50,-99.99,,,-99.99,,2013-03-10 20:22:00,
2013-03-10 16:32:00,50.0,32.0,30.32,SW,220,1.0,-999.0,49,-99.99,,,-99.99,,2013-03-10 20:32:00,
2013-03-10 16:43:00,50.0,32.0,30.32,SW,220,1.0,-999.0,49,-99.99,,,-99.99,,2013-03-10 20:43:00,
2013-03-10 16:52:00,49.0,32.0,30.31,SSW,204,2.0,-999.0,52,-99.99,,,-99.99,,2013-03-10 20:52:00,
2013-03-10 17:02:00,48.0,32.0,30.31,SW,217,3.0,-999.0,53,-99.99,,,-99.99,,2013-03-10 21:02:00,
2013-03-10 17:12:00,48.0,32.0,30.31,SW,217,3.0,-999.0,53,-99.99,,,-99.99,,2013-03-10 21:12:00,
2013-03-10 17:23:00,48.0,31.0,30.32,SW,218,1.0,-999.0,51,-99.99,,,-99.99,,2013-03-10 21:23:00,
2013-03-10 17:33:00,47.0,30.0,30.32,WSW,250,1.0,-999.0,51,-99.99,,,-99.99,,2013-03-10 21:33:00,
2013-03-10 17:42:00,47.0,30.0,30.32,WSW,250,1.0,-999.0,51,-99.99,,,-99.99,,2013-03-10 21:42:00,
2013-03-10 17:52:00,47.0,30.0,30.32,WSW,250,1.0,-999.0,51,-99.99,,,-99.99,,2013-03-10 21:52:00,
2013-03-10 18:03:00,44.0,28.0,30.31,SW,222,1.0,-999.0,53,-99.99,,,-99.99,,2013-03-10 22:03:00,
2013-03-10 18:12:00,44.0,28.0,30.31,SW,222,1.0,-999.0,53,-99.99,,,-99.99,,2013-03-10 22:12:00,
2013-03-10 18:22:00,43.0,28.0,30.30,SSW,198,1.0,-999.0,56,-99.99,,,-99.99,,2013-03-10 22:22:00,
2013-03-10 18:32:00,42.0,29.0,30.31,South,185,0.0,-999.0,59,-99.99,,,-99.99,,2013-03-10 22:32:00,
2013-03-10 18:43:00,42.0,29.0,30.31,South,185,0.0,-999.0,59,-99.99,,,-99.99,,2013-03-10 22:43:00,
2013-03-10 18:52:00,42.0,30.0,30.32,SSW,195,1.0,-999.0,61,-99.99,,,-99.99,,2013-03-10 22:52:00,
2013-03-10 19:03:00,41.0,29.0,30.32,SSW,195,0.0,-999.0,63,-99.99,,,-99.99,,2013-03-10 23:03:00,
2013-03-10 19:12:00,41.0,30.0,30.32,SSW,204,0.0,-999.0,65,-99.99,,,-99.99,,2013-03-10 23:12:00,
2013-03-10 19:23:00,41.0,30.0,30.32,SSW,204,0.0,-999.0,65,-99.99,,,-99.99,,2013-03-10 23:23:00,
2013-03-10 19:33:00,40.0,30.0,30.32,SSW,201,0.0,-999.0,67,-99.99,,,-99.99,,2013-03-10 23:33:00,
2013-03-10 19:42:00,40.0,30.0,30.32,SSW,201,0.0,-999.0,67,-99.99,,,-99.99,,2013-03-10 23:42:00,
2013-03-10 19:52:00,40.0,30.0,30.33,SSW,202,0.0,-999.0,68,-99.99,,,-99.99,,2013-03-10 23:52:00,
2013-03-10 20:03:00,39.0,30.0,30.33,SSW,208,0.0,-999.0,70,-99.99,,,-99.99,,2013-03-11 00:03:00,
2013-03-10 20:13:00,39.0,30.0,30.33,SSW,208,0.0,-999.0,70,-99.99,,,-99.99,,2013-03-11 00:13:00,
2013-03-10 20:23:00,38.0,29.0,30.33,SSW,208,0.0,-999.0,70,-99.99,,,-99.99,,2013-03-11 00:23:00,
2013-03-10 20:33:00,38.0,30.0,30.33,SSW,208,0.0,-999.0,72,-99.99,,,-99.99,,2013-03-11 00:33:00,
2013-03-10 20:43:00,38.0,30.0,30.33,SSW,208,0.0,-999.0,72,-99.99,,,-99.99,,2013-03-11 00:43:00,
2013-03-10 20:52:00,38.0,31.0,30.33,SSW,209,1.0,-999.0,75,-99.99,,,-99.99,,2013-03-11 00:52:00,
2013-03-10 21:03:00,37.0,30.0,30.32,SSW,208,0.0,-999.0,77,-99.99,,,-99.99,,2013-03-11 01:03:00,
2013-03-10 21:13:00,37.0,30.0,30.32,SSW,208,0.0,-999.0,77,-99.99,,,-99.99,,2013-03-11 01:13:00,
2013-03-10 21:23:00,36.0,30.0,30.32,SW,224,2.0,-999.0,79,-99.99,,,-99.99,,2013-03-11 01:23:00,
2013-03-10 21:32:00,36.0,30.0,30.33,SSW,209,1.0,-999.0,80,-99.99,,,-99.99,,2013-03-11 01:32:00,
2013-03-10 21:43:00,36.0,30.0,30.33,SSW,209,1.0,-999.0,80,-99.99,,,-99.99,,2013-03-11 01:43:00,
2013-03-10 21:52:00,36.0,31.0,30.33,SW,221,0.0,-999.0,82,-99.99,,,-99.99,,2013-03-11 01:52:00,
2013-03-10 22:03:00,35.0,30.0,30.32,SW,224,3.0,-999.0,83,-99.99,,,-99.99,,2013-03-11 02:03:00,
2013-03-10 22:12:00,35.0,30.0,30.32,SW,224,3.0,-999.0,83,-99.99,,,-99.99,,2013-03-11 02:12:00,
2013-03-10 22:23:00,35.0,31.0,30.32,SW,226,1.0,-999.0,84,-99.99,,,-99.99,,2013-03-11 02:23:00,
2013-03-10 22:32:00,35.0,31.0,30.33,SW,224,0.0,-999.0,85,-99.99,,,-99.99,,2013-03-11 02:32:00,
2013-03-10 22:42:00,35.0,31.0,30.33,SW,224,0.0,-999.0,85,-99.99,,,-99.99,,2013-03-11 02:42:00,
2013-03-10 22:52:00,35.0,31.0,30.32,SW,224,0.0,-999.0,85,-99.99,,,-99.99,,2013-03-11 02:52:00,
2013-03-10 23:02:00,35.0,31.0,30.32,SW,222,0.0,-999.0,86,-99.99,,,-99.99,,2013-03-11 03:02:00,
2013-03-10 23:12:00,35.0,31.0,30.32,SW,222,0.0,-999.0,86,-99.99,,,-99.99,,2013-03-11 03:12:00,
2013-03-10 23:22:00,35.0,31.0,30.32,SW,221,1.0,-999.0,85,-99.99,,,-99.99,,2013-03-11 03:22:00,
2013-03-10 23:32:00,34.0,30.0,30.31,SW,223,0.0,-999.0,85,-99.99,,,-99.99,,2013-03-11 03:32:00,
2013-03-10 23:42:00,34.0,30.0,30.31,SW,223,0.0,-999.0,85,-99.99,,,-99.99,,2013-03-11 03:42:00,
2013-03-10 23:52:00,34.0,30.0,30.31,SW,223,0.0,-999.0,85,-99.99,,,-99.99,,2013-03-11 03:52:00,